Temp
76 75 76 76 76 78 77 77 78 78 77 78 78 78 78 79 80 80 81 80 80 79 79 78 79 79 81 79 78 78 78 77 77 77 77 77 77 77 80 79 78 77
77 76 78 78 77 78 77 78 78 78 77 77 79 79 79 80 81 81 80 80 81 81 79 79 79 79 79 79 78 78 77 77 77 81 78 77 78 78 79 78 79 78
78 77 78 77 79 78 80 79 79 79 79 79 80 80 81 82 82 80 80 81 81 82 80 79 79 79 79 78 77 78 79 77 77 78 77 77 78 78 78 80 79 80
78 78 79 80 79 79 80 79 79 79 80 80 80 83 83 85 83 82 80 82 80 80 81 80 80 81 80 79 78 78 78 77 78 77 77 77 77 78 78 78 79 79
80 79 80 80 80 79 79 80 81 81 81 82 83 82 82 81 82 82 81 81 80 80 80 80 80 81 80 79 79 77 78 77 78 77 76 77 78 78 79 78 77 78
79 79 79 80 80 79 80 80 81 82 82 83 83 83 83 82 81 82 81 81 81 82 82 81 80 81 81 80 79 79 79 78 79 77 77 77 78 79 81 80 77 77
80 79 80 81 82 82 81 81 83 83 83 84 83 83 84 83 82 82 82 82 83 82 83 81 80 80 81 80 79 78 78 79 79 78 77 77 77 78 80 80 78 77
82 82 81 81 82 83 82 82 83 83 84 84 84 84 83 84 83 83 82 83 83 82 82 82 80 80 82 81 79 78 79 80 80 77 76 76 75 75 76 79 77 75
82 82 83 82 82 82 83 84 84 84 85 84 85 86 84 85 84 84 82 82 83 82 81 82 80 81 81 80 80 79 79 80 80 77 77 77 76 75 76 75 75 74
80 82 83 83 83 83 83 83 83 83 83 85 86 87 86 84 85 85 84 81 82 82 81 82 81 80 81 81 80 79 78 78 76 75 76 75 75 76 76 75 74 73
79 82 82 81 82 83 83 82 80 81 80 81 82 82 83 82 82 84 83 81 83 82 82 81 82 81 80 80 79 79 78 78 76 75 75 75 75 75 78 75 74 74
71 76 80 80 81 81 80 79 80 80 81 80 80 80 81 82 81 82 83 82 83 83 82 82 81 80 79 79 79 78 77 77 76 75 75 75 75 76 76 76 74 73
74 73 73 76 78 78 78 77 79 80 80 80 80 80 80 80 81 80 79 81 82 81 81 81 80 80 78 78 78 77 76 76 75 75 75 75 75 76 78 76 75 74
74 73 74 73 75 75 76 77 78 78 78 78 79 78 79 79 80 80 79 78 79 80 77 76 76 76 76 77 76 76 76 76 75 75 75 74 73 75 77 77 75 75
74 75 75 75 76 76 76 76 76 76 76 77 77 78 80 79 79 80 77 76 76 75 75 75 74 73 74 75 75 74 75 75 75 75 74 72 73 74 76 76 74 74
75 76 76 75 75 75 75 75 76 76 76 76 76 76 76 76 77 77 78 76 75 73 72 71 70 71 72 72 74 75 74 76 75 75 73 72 72 72 73 75 74 73
74 75 75 75 75 75 74 74 74 75 74 74 74 75 75 76 76 76 76 75 74 71 69 68 67 68 68 67 68 72 74 73 74 74 73 72 73 73 73 74 74 73
72 73 73 73 74 74 74 74 74 74 73 73 74 74 75 75 75 76 75 73 71 69 67 66 65 65 63 66 67 68 73 73 73 74 74 73 73 73 74 74 72 73
70 70 70 70 71 72 73 73 73 72 71 72 72 74 73 73 73 74 72 71 69 67 66 65 64 63 62 64 65 65 68 73 72 75 73 72 73 73 72 70 70 70
70 70 71 71 70 71 71 71 71 70 70 72 72 72 71 72 72 70 69 67 67 65 64 64 63 62 61 62 63 64 66 69 72 75 74 72 72 70 70 71 71 70
70 70 70 70 70 70 70 70 69 69 70 71 72 72 72 71 70 69 67 66 65 65 64 62 62 59 59 62 62 64 66 72 70 74 72 70 70 70 70 70 71 70
70 69 69 69 69 69 69 69 70 70 70 71 71 70 70 70 70 67 64 63 63 62 61 60 59 58 58 60 61 64 70 74 73 71 70 69 70 70 70 69 66 65
70 69 69 69 69 69 69 69 70 70 70 71 69 68 68 67 65 65 64 63 62 62 60 59 59 57 56 57 59 61 68 70 71 70 70 69 69 70 69 67 67 67
70 69 69 69 68 68 67 67 68 68 68 69 66 65 65 65 65 64 64 64 63 62 61 58 58 57 55 55 57 60 66 67 68 67 67 69 69 69 68 68 71 74
69 69 69 68 67 67 67 66 66 66 66 66 65 65 64 65 65 63 63 63 64 63 64 59 58 58 55 55 56 58 63 64 64 64 64 64 67 67 67 67 68 70
70 69 69 68 67 67 67 66 66 66 65 65 64 64 63 63 63 62 61 61 62 61 61 60 59 58 58 54 55 56 60 63 63 62 63 64 66 67 66 66 67 67
MSLP
1017.17 1017.29 1017.41 1017.53 1017.73 1017.69 1017.85 1018.09 1018.09 1018.21 1018.25 1018.21 1018.33 1018.25 1018.21 1018.01 1017.89 1018.01 1018.01 1018.05 1018.13 1018.21 1018.21 1018.21 1018.17 1018.21 1018.17 1018.21 1018.29 1018.41 1018.57 1018.65 1018.65 1018.61 1018.73 1018.77 1018.85 1018.89 1019.01 1018.89 1018.85 1018.89
1017.13 1017.21 1017.21 1017.29 1017.49 1017.53 1017.53 1017.57 1017.77 1017.89 1018.01 1018.01 1017.97 1017.85 1017.73 1017.77 1017.73 1017.77 1017.89 1018.01 1017.97 1018.05 1018.05 1018.13 1018.17 1018.13 1018.21 1018.29 1018.33 1018.45 1018.53 1018.57 1018.73 1018.45 1018.69 1018.77 1018.77 1018.77 1018.89 1018.77 1018.77 1018.65
1016.97 1017.17 1017.25 1017.37 1017.41 1017.49 1017.37 1017.29 1017.33 1017.49 1017.65 1017.65 1017.57 1017.61 1017.61 1017.45 1017.57 1017.61 1017.65 1017.77 1017.93 1017.93 1018.01 1018.05 1018.13 1018.13 1018.13 1018.21 1018.29 1018.41 1018.53 1018.61 1018.73 1018.53 1018.61 1018.73 1018.69 1018.81 1018.69 1018.65 1018.69 1018.61
1016.85 1016.85 1017.05 1017.09 1017.09 1017.21 1017.13 1017.21 1017.25 1017.25 1017.25 1017.45 1017.49 1017.29 1017.25 1017.21 1017.21 1017.41 1017.53 1017.53 1017.73 1017.81 1017.81 1017.89 1017.97 1017.97 1018.01 1018.05 1018.17 1018.33 1018.37 1018.41 1018.37 1018.37 1018.61 1018.61 1018.61 1018.61 1018.65 1018.57 1018.61 1018.61
1016.73 1016.77 1016.73 1016.81 1016.85 1016.89 1017.01 1017.21 1017.25 1017.21 1017.21 1017.13 1017.05 1017.01 1017.05 1017.09 1017.13 1017.21 1017.33 1017.41 1017.49 1017.65 1017.69 1017.77 1017.77 1017.81 1017.81 1017.89 1017.97 1018.25 1018.29 1018.45 1018.37 1018.41 1018.61 1018.73 1018.49 1018.53 1018.49 1018.53 1018.65 1018.69
1016.61 1016.57 1016.57 1016.65 1016.65 1016.85 1017.01 1017.13 1017.09 1017.09 1017.09 1017.09 1016.97 1016.81 1016.85 1016.81 1016.93 1017.01 1017.13 1017.33 1017.37 1017.41 1017.57 1017.61 1017.69 1017.65 1017.65 1017.73 1017.85 1018.09 1018.21 1018.37 1018.29 1018.33 1018.57 1018.65 1018.49 1018.33 1018.33 1018.37 1018.49 1018.61
1016.69 1016.65 1016.65 1016.49 1016.57 1016.57 1016.77 1016.85 1016.77 1016.73 1016.77 1016.61 1016.53 1016.69 1016.49 1016.65 1016.77 1016.85 1016.93 1017.05 1017.13 1017.29 1017.37 1017.49 1017.57 1017.61 1017.53 1017.61 1017.85 1018.01 1018.05 1018.05 1018.05 1018.21 1018.45 1018.49 1018.49 1018.49 1018.29 1018.29 1018.29 1018.37
1016.53 1016.49 1016.45 1016.45 1016.53 1016.49 1016.65 1016.65 1016.61 1016.57 1016.37 1016.37 1016.57 1016.33 1016.29 1016.41 1016.53 1016.77 1016.85 1016.85 1016.97 1017.05 1017.13 1017.17 1017.25 1017.33 1017.33 1017.49 1017.81 1018.01 1018.05 1017.89 1018.01 1018.17 1018.33 1018.41 1018.45 1018.57 1018.37 1018.25 1018.37 1018.49
1016.37 1016.45 1016.37 1016.45 1016.49 1016.41 1016.45 1016.37 1016.33 1016.21 1016.01 1016.29 1016.29 1016.17 1016.01 1016.09 1016.25 1016.37 1016.57 1016.69 1016.77 1016.81 1016.89 1017.01 1017.05 1017.17 1017.13 1017.33 1017.61 1017.77 1017.89 1017.85 1017.81 1017.97 1018.13 1018.29 1018.37 1018.33 1018.29 1018.13 1018.37 1018.69
1016.45 1016.33 1016.33 1016.33 1016.37 1016.21 1016.21 1016.09 1016.01 1015.97 1015.85 1015.93 1015.81 1015.73 1015.89 1015.81 1015.73 1015.89 1016.09 1016.37 1016.53 1016.57 1016.65 1016.73 1016.85 1016.93 1016.97 1017.09 1017.29 1017.45 1017.61 1017.69 1017.73 1017.77 1017.85 1017.93 1018.01 1018.01 1018.05 1018.09 1018.13 1018.25
1016.85 1016.41 1016.41 1016.33 1016.25 1016.01 1015.97 1015.85 1015.81 1015.81 1015.73 1015.73 1015.69 1015.77 1015.73 1015.81 1015.85 1015.61 1015.77 1016.05 1016.29 1016.33 1016.41 1016.53 1016.57 1016.61 1016.81 1016.93 1016.97 1017.01 1017.17 1017.33 1017.53 1017.65 1017.73 1017.73 1017.77 1017.73 1017.77 1017.81 1017.89 1018.09
1017.85 1017.53 1016.41 1016.17 1016.09 1015.93 1015.85 1015.77 1015.73 1015.65 1015.61 1015.57 1015.57 1015.81 1015.69 1015.57 1015.69 1015.81 1015.85 1015.93 1015.81 1015.85 1015.97 1016.09 1016.13 1016.29 1016.53 1016.69 1016.77 1016.93 1017.09 1017.21 1017.29 1017.45 1017.53 1017.61 1017.65 1017.65 1017.65 1017.53 1017.69 1017.77
1016.41 1017.49 1017.81 1016.57 1015.85 1015.81 1015.69 1015.69 1015.69 1015.65 1015.65 1015.69 1015.53 1015.61 1015.77 1015.77 1015.65 1015.69 1015.57 1015.65 1015.73 1015.73 1015.85 1015.85 1015.93 1016.01 1016.21 1016.37 1016.57 1016.73 1016.89 1017.05 1017.25 1017.37 1017.49 1017.57 1017.65 1017.61 1017.49 1017.41 1017.53 1017.57
1015.53 1015.85 1016.81 1017.37 1016.37 1015.61 1015.65 1015.69 1015.73 1015.77 1015.73 1015.61 1015.53 1015.65 1015.73 1015.73 1015.73 1015.61 1015.49 1015.53 1015.53 1015.65 1015.85 1015.93 1016.17 1016.29 1016.33 1016.33 1016.41 1016.53 1016.73 1016.93 1017.09 1017.33 1017.61 1018.21 1018.33 1017.97 1017.69 1017.45 1017.41 1017.45
1015.57 1015.53 1015.93 1016.53 1015.97 1015.45 1015.49 1015.61 1015.69 1015.77 1015.73 1015.69 1015.69 1015.69 1015.61 1015.57 1015.53 1015.53 1015.61 1015.69 1015.73 1015.81 1015.89 1015.97 1016.25 1016.53 1016.61 1016.65 1016.73 1016.69 1016.73 1016.93 1017.09 1017.37 1017.73 1017.53 1017.29 1017.37 1017.25 1017.17 1017.13 1017.17
1015.01 1015.13 1015.41 1015.45 1015.37 1015.37 1015.45 1015.53 1015.65 1015.69 1015.69 1015.73 1015.69 1015.61 1015.61 1015.57 1015.57 1015.61 1015.73 1015.89 1016.01 1016.17 1016.21 1016.29 1016.49 1016.61 1016.69 1016.69 1016.73 1016.81 1016.85 1016.85 1017.01 1017.21 1017.17 1017.37 1017.69 1017.49 1017.21 1017.09 1017.13 1017.13
1014.93 1014.93 1014.93 1015.09 1015.09 1015.17 1015.33 1015.53 1015.73 1015.77 1015.85 1015.89 1015.89 1015.81 1015.69 1015.57 1015.57 1015.77 1015.97 1016.13 1016.33 1016.57 1016.77 1016.89 1016.97 1016.89 1016.77 1016.73 1016.85 1016.93 1016.97 1017.01 1017.01 1017.09 1017.13 1017.37 1017.41 1017.41 1017.49 1017.41 1017.21 1017.09
1016.01 1015.65 1015.53 1015.57 1015.41 1015.45 1015.49 1015.69 1015.85 1016.05 1016.29 1016.25 1016.17 1016.13 1015.85 1015.65 1015.73 1015.85 1016.05 1016.33 1016.61 1016.81 1017.01 1017.13 1017.17 1017.17 1017.09 1016.97 1016.77 1016.89 1017.13 1017.13 1017.01 1017.01 1017.09 1017.13 1017.17 1017.25 1017.29 1017.33 1017.33 1017.29
1016.33 1016.45 1016.61 1016.69 1016.45 1016.09 1015.97 1015.97 1016.13 1016.37 1016.49 1016.53 1016.53 1016.25 1016.01 1016.01 1016.05 1016.13 1016.37 1016.53 1016.77 1017.05 1017.29 1017.41 1017.45 1017.41 1017.29 1017.09 1016.85 1016.45 1017.13 1017.37 1017.21 1016.85 1016.85 1017.05 1017.09 1017.25 1017.65 1018.21 1018.49 1018.69
1015.69 1015.65 1015.89 1016.17 1016.45 1016.45 1016.33 1016.41 1016.61 1016.81 1016.69 1016.53 1016.41 1016.25 1016.29 1016.37 1016.41 1016.61 1016.81 1017.01 1017.13 1017.25 1017.41 1017.53 1017.57 1017.61 1017.49 1017.25 1016.93 1016.85 1016.93 1017.13 1016.97 1016.77 1016.89 1017.17 1017.37 1017.49 1017.65 1017.97 1018.21 1018.65
1016.17 1016.13 1016.21 1016.33 1016.37 1016.41 1016.49 1016.69 1016.81 1017.01 1017.25 1017.05 1016.73 1016.65 1016.65 1016.73 1016.85 1017.09 1017.33 1017.49 1017.65 1017.77 1017.85 1017.93 1018.05 1017.89 1017.57 1017.33 1017.13 1016.85 1016.69 1016.57 1016.57 1016.69 1017.01 1017.33 1017.53 1017.65 1017.81 1017.89 1017.97 1018.33
1015.97 1016.17 1016.29 1016.45 1016.57 1016.65 1016.69 1016.73 1016.81 1016.93 1017.17 1017.13 1016.97 1016.89 1016.81 1016.81 1017.09 1017.41 1017.77 1017.97 1018.09 1018.13 1018.13 1018.13 1018.13 1017.93 1017.61 1017.25 1016.93 1016.65 1016.45 1016.33 1016.49 1016.85 1017.17 1017.41 1017.61 1017.77 1017.93 1018.13 1018.41 1018.73
1015.81 1016.17 1016.49 1016.61 1016.77 1016.89 1016.93 1016.89 1016.93 1017.05 1017.09 1016.97 1017.21 1017.25 1017.29 1017.45 1017.69 1017.93 1018.09 1018.33 1018.53 1018.61 1018.61 1018.49 1018.41 1018.25 1017.85 1017.25 1016.97 1016.85 1016.73 1016.77 1016.81 1017.01 1017.29 1017.53 1017.77 1017.89 1018.09 1018.29 1018.41 1018.53
1016.21 1016.49 1016.77 1016.93 1017.09 1017.33 1017.41 1017.41 1017.37 1017.37 1017.41 1017.29 1017.53 1017.69 1017.81 1017.89 1017.93 1018.13 1018.29 1018.37 1018.57 1018.77 1018.85 1019.05 1019.05 1018.77 1018.33 1017.61 1017.21 1017.05 1017.05 1017.21 1017.33 1017.45 1017.73 1017.85 1018.01 1018.09 1018.13 1018.17 1018.13 1018.21
1016.65 1016.81 1017.05 1017.33 1017.61 1017.65 1017.65 1017.81 1017.89 1017.89 1017.81 1017.69 1017.77 1017.77 1017.97 1018.01 1018.09 1018.33 1018.53 1018.57 1018.61 1018.73 1018.85 1019.17 1019.37 1019.21 1018.77 1017.97 1017.69 1017.53 1017.49 1017.73 1017.89 1018.05 1018.29 1018.45 1018.45 1018.57 1018.49 1018.53 1018.53 1018.53
1016.81 1017.01 1017.17 1017.33 1017.53 1017.65 1017.77 1017.97 1018.01 1018.09 1018.13 1018.09 1018.13 1018.13 1018.21 1018.29 1018.41 1018.57 1018.73 1018.93 1019.01 1019.05 1019.13 1019.21 1019.49 1019.45 1019.21 1018.65 1018.25 1018.17 1018.01 1017.97 1018.21 1018.25 1018.57 1018.77 1018.65 1018.65 1018.77 1018.77 1018.77 1018.77
Wind_Speed
4 3 4 4 5 5 6 5 5 5 5 5 5 6 6 6 5 6 6 5 5 5 5 4 4 4 4 4 4 3 3 4 3 3 3 3 3 3 4 4 3 2
5 4 3 4 5 4 5 6 6 6 6 5 5 6 6 5 6 6 6 6 6 6 5 5 4 4 4 4 3 3 3 3 4 2 3 3 5 4 4 4 4 3
6 4 5 5 6 5 6 6 5 6 6 6 6 5 6 5 5 5 6 6 6 6 5 5 4 4 5 4 3 4 4 4 4 3 3 4 4 4 4 4 4 4
7 6 6 5 4 6 5 6 6 6 5 5 6 6 7 6 6 6 6 7 7 7 6 5 6 5 5 5 4 5 5 4 4 3 3 3 3 3 4 4 4 3
8 7 6 5 5 4 4 5 6 6 6 6 6 6 7 7 6 6 7 7 7 7 6 7 6 6 6 6 5 5 4 5 4 3 4 4 4 3 4 3 3 4
7 6 6 6 6 5 5 5 5 6 6 6 8 6 7 7 6 6 6 7 7 8 7 6 7 7 6 6 6 6 5 5 5 4 5 5 5 4 3 4 3 4
8 7 8 7 7 6 7 6 7 6 6 7 6 6 7 6 6 6 7 7 8 7 7 7 7 7 6 6 6 6 6 6 6 5 5 5 4 5 3 4 4 4
8 7 7 7 8 8 8 8 8 7 8 7 7 7 6 7 5 2 3 6 8 8 7 7 7 7 8 6 6 6 6 5 6 5 4 3 2 3 3 2 3 3
8 8 8 8 9 8 8 9 8 9 9 8 8 8 6 7 7 8 7 7 7 7 7 7 6 7 7 6 6 7 7 6 5 5 5 4 3 2 1 1 2 1
7 9 10 10 10 9 9 7 6 6 6 9 9 9 8 7 9 9 9 8 8 8 8 7 7 6 6 7 7 7 6 6 5 5 5 4 3 3 3 3 3 3
7 9 9 10 10 9 9 5 4 3 3 3 2 3 2 3 4 6 9 8 9 9 8 8 8 7 6 5 5 6 7 6 5 4 5 4 4 4 4 4 4 4
8 10 10 11 10 8 7 5 3 2 2 2 3 2 2 2 3 4 4 6 8 9 9 9 8 7 6 6 6 5 5 5 5 5 5 5 4 4 4 4 3 4
8 4 10 5 7 6 4 3 3 2 2 2 2 3 3 2 2 2 1 5 6 5 6 7 7 7 7 7 6 6 6 6 5 4 3 4 3 3 4 4 4 5
9 9 5 9 5 3 3 3 3 3 3 2 2 3 2 2 1 1 0 1 2 3 0 1 1 1 1 4 5 6 6 5 4 4 1 7 7 5 6 5 5 5
7 9 10 11 7 5 4 4 4 4 4 3 2 2 1 0 1 3 3 4 4 5 5 5 5 4 3 2 1 2 3 4 3 3 6 6 7 5 3 2 3 4
6 7 8 7 5 5 5 4 4 3 3 3 3 3 1 1 1 2 3 5 6 5 5 5 4 3 5 8 7 2 1 2 3 5 6 4 2 4 6 3 2 2
5 5 5 5 5 4 4 4 3 2 2 1 1 1 1 1 2 3 4 4 5 5 5 4 4 3 6 6 7 8 4 2 2 4 5 5 6 6 4 3 4 2
6 5 5 4 4 4 5 5 4 3 3 2 2 1 1 1 2 4 5 6 5 6 6 4 3 6 5 4 5 6 6 1 0 3 4 5 5 5 4 2 1 0
6 8 8 7 7 4 4 4 4 3 2 2 2 1 1 1 2 5 6 5 6 6 4 3 2 6 4 3 2 9 2 3 4 3 4 4 3 0 3 6 7 7
5 8 7 5 1 2 4 5 4 2 2 2 2 2 2 2 4 5 5 5 5 5 5 3 4 8 8 5 2 2 4 5 3 1 3 3 5 7 6 4 2 3
1 3 4 4 4 4 5 5 4 4 2 2 2 2 2 3 4 6 5 6 5 5 5 5 4 9 7 5 3 3 6 6 4 6 5 6 6 6 5 5 6 7
4 4 4 4 4 4 4 4 4 3 4 3 3 3 4 5 7 7 7 6 6 5 5 4 4 8 7 7 7 6 4 5 6 6 6 5 5 5 5 7 8 7
5 5 4 5 5 5 5 4 3 3 3 3 5 5 7 8 7 7 6 7 7 6 5 5 5 9 9 9 9 9 6 5 6 6 6 6 6 6 7 8 7 5
5 5 5 5 5 6 5 6 6 6 6 5 7 7 8 7 7 8 7 7 7 7 6 6 7 9 10 10 10 10 7 6 6 7 6 6 6 6 5 5 7 13
6 6 7 7 6 6 6 7 7 6 6 6 7 7 7 6 7 8 7 6 6 6 10 8 6 7 11 11 12 11 8 6 6 7 8 6 5 5 5 5 5 8
6 7 7 7 8 7 7 6 5 6 6 7 6 6 7 7 7 7 8 6 5 5 6 6 4 4 6 12 13 13 10 7 5 7 7 6 5 5 5 4 3 2
Wind_Direction
200 184 192 185 195 183 176 181 190 189 196 205 200 212 207 215 212 206 210 213 215 219 221 222 217 206 211 203 197 197 194 212 223 225 229 224 235 229 251 262 262 238
211 189 195 182 186 199 182 183 183 183 200 204 219 221 221 207 218 205 209 213 215 221 219 216 216 208 205 206 211 205 222 214 226 209 212 225 235 236 250 257 262 264
207 197 195 183 185 192 186 189 193 197 191 206 213 220 227 220 217 206 215 214 215 222 217 212 212 209 201 207 211 218 222 228 232 236 211 225 236 236 251 254 262 262
208 207 197 198 187 192 194 187 200 208 208 209 217 213 214 217 214 205 208 212 209 211 210 204 209 205 202 205 199 215 224 224 225 223 236 252 250 240 245 243 249 270
206 210 207 199 197 195 195 196 205 211 215 220 218 216 217 220 216 207 204 206 200 202 200 205 206 207 205 205 201 213 220 228 235 225 232 246 249 233 245 238 252 272
208 207 207 207 203 199 207 211 212 210 219 222 225 218 214 212 203 203 202 199 198 201 201 205 205 213 208 209 207 210 212 216 224 211 220 232 246 235 238 226 232 254
204 201 205 204 206 207 212 220 228 224 222 222 213 217 218 220 212 198 195 198 196 201 205 203 206 213 212 211 207 214 215 217 220 213 222 240 246 264 258 243 236 232
207 205 205 203 204 210 211 219 224 224 228 232 225 224 213 222 199 202 230 207 198 203 204 204 208 212 214 209 210 215 225 219 221 214 213 223 210 258 277 308 4 314
206 212 211 210 209 210 212 214 220 224 223 223 227 230 214 205 188 199 211 215 211 206 205 206 205 212 214 209 211 211 218 222 212 204 204 196 186 189 174 154 187 196
214 216 214 217 218 220 218 211 209 216 222 222 225 223 211 202 196 199 202 202 210 209 208 214 211 212 213 209 209 207 209 212 200 193 190 194 197 199 177 163 196 220
272 223 220 215 218 221 222 206 179 172 165 162 184 182 194 208 235 212 196 195 204 205 208 210 211 208 202 195 198 201 204 200 194 194 202 207 211 217 195 186 200 206
318 296 228 211 216 213 206 188 175 167 139 118 126 120 66 80 163 207 234 217 205 203 204 207 206 200 190 189 190 187 191 193 195 201 207 206 216 225 219 217 191 187
164 234 310 263 198 197 190 179 176 170 135 117 113 93 93 105 63 52 207 202 225 226 217 211 199 192 189 187 186 185 189 193 200 209 210 212 229 242 235 218 205 207
170 157 202 268 257 180 159 142 118 111 113 105 82 90 119 137 159 157 95 40 244 209 124 62 69 101 188 195 188 188 186 193 199 200 167 44 16 306 278 254 221 213
179 178 180 204 211 158 139 121 121 130 132 122 108 115 103 234 230 153 119 93 81 95 103 97 96 67 30 360 228 188 173 180 181 131 107 173 205 250 282 259 219 211
182 175 173 170 151 132 127 120 114 112 116 131 142 136 152 266 50 116 114 122 116 99 91 92 86 82 38 25 22 3 201 162 138 135 164 164 172 249 261 268 266 220
166 148 141 135 135 120 108 96 78 69 64 75 69 74 81 74 102 108 103 88 84 87 77 59 49 44 50 59 44 14 16 38 114 152 158 151 187 214 242 235 225 226
8 31 50 47 63 68 80 80 78 61 46 42 85 85 86 70 106 122 107 93 90 89 80 72 60 24 8 38 94 68 18 345 214 184 177 181 196 210 226 224 221 307
44 39 25 9 348 39 71 93 90 77 73 65 40 37 90 92 64 86 96 98 102 98 79 66 65 11 347 1 6 90 82 290 264 228 184 182 202 186 29 11 5 359
125 130 141 142 161 58 62 69 74 78 59 36 33 32 56 54 76 86 83 83 83 86 91 54 41 359 344 337 24 142 188 211 220 212 106 85 77 72 76 64 32 6
42 60 84 90 88 82 79 68 63 49 354 357 45 76 92 96 96 94 80 68 58 50 58 46 24 354 346 350 329 186 182 174 143 102 94 81 73 77 73 69 67 81
90 69 63 69 72 79 94 113 129 167 163 148 103 75 69 76 73 74 74 65 56 53 63 44 359 357 3 13 26 49 75 99 105 101 97 91 80 79 78 74 78 81
67 73 61 53 60 71 62 56 74 117 122 109 81 59 63 65 71 73 68 64 50 32 30 24 4 357 360 34 39 32 70 82 89 92 89 87 80 79 89 101 103 94
64 74 77 67 58 59 62 61 58 57 62 66 82 79 73 76 87 84 74 73 70 55 37 21 7 351 359 28 42 52 59 72 78 83 78 85 86 75 72 71 80 82
86 83 83 84 81 75 71 66 60 70 76 78 84 92 89 83 76 80 77 62 63 74 70 57 5 349 358 29 40 42 57 56 62 74 74 62 74 72 62 65 58 63
99 98 96 95 92 86 83 80 83 77 68 77 71 73 82 80 84 81 77 68 60 60 59 58 38 359 11 28 40 38 44 69 68 86 86 80 81 94 86 61 63 99